User: anonymous   Login
Location: Rio de Janeiro
(22.9068°S, 43.1729°W)
Time: 00:44:22
(UTC-03:00)
Language:

JUGNU - Orbit

View from above orbital plane
View from above orbital plane
View from above satellite
View from above satellite

Ground track
Ground track

The orbit data is extracted from the following two-line orbital elements,

1 37839U 11058B   24106.28507097  .00000680  00000-0  21791-3 0  9993
2 37839  19.9615  83.6856 0018593 323.0174 169.3873 14.13163005646709
Epoch (UTC): 15 April 2024 06:50:30
Eccentricity: 0.0018593
inclination: 19.9615°
perigee height: 835 km
apogee height: 862 km
right ascension of ascending node: 83.6856°
argument of perigee: 323.0174°
revolutions per day: 14.13163005
mean anomaly at epoch: 169.3873°
orbit number at epoch: 64670

The dashed part of the orbit path shows where the satellite is in the earth's shadow,  

DLR